Miscellaneous Local Product
Issued by NWS Hastings, NE

Home | Current Version | Previous Version | Graphics & Text | Print | Product List | Glossary On
Versions: 1 2 3 4 5 6 7 8 9 10 11 12 13 14 15 16 17 18 19 20 21 22 23 24 25 26 27 28 29 30 31 32 33 34 35 36 37 38 39 40 41 42 43 44 45 46 47 48 49 50
000
AXUS43 KGID 171902
MISGRI

GID CWA HOURLY WEATHER ROUNDUP
NATIONAL WEATHER SERVICE HASTINGS NE
200 PM CDT SUN JUN 17 2018

NOTE: "FAIR" INDICATES FEW OR NO CLOUDS BELOW 12,000 FEET WITH NO
SIGNIFICANT WEATHER AND/OR OBSTRUCTIONS TO VISIBILITY.

...SOUTH CENTRAL NEBRASKA...

CITY           SKY/WX    TMP DP  RH WIND       PRES   REMARKS
GRAND ISLAND   MOSUNNY   88  69  53 S18G29    29.85F HX  92
KEARNEY        NOT AVBL
HASTINGS       NOT AVBL
ORD            CLOUDY    83  68  60 S15G25    29.83F
YORK           LGT RAIN  84  70  61 S17G25    29.88F
AURORA         MOSUNNY   87  68  53 S18G26    29.86F HX  90
LEXINGTON      CLOUDY   N/A N/A N/A S15G22    29.85R
HOLDREGE       PTSUNNY   86  69  55 S21G28    29.85F HX  90
HEBRON         PTSUNNY   92  66  41 S18G28    29.87F HX  94

...NEBRASKA PANHANDLE...

CITY           SKY/WX    TMP DP  RH WIND       PRES   REMARKS
CHADRON        CLOUDY    58  56  93 N13G23    30.00R FOG
ALLIANCE       LGT RAIN  60  60 100 N16       29.96R FOG
SCOTTSBLUFF    LGT RAIN  60  59  96 N13       29.98R
SIDNEY         CLOUDY    68  63  84 N15       29.94R

...WESTERN AND NORTH CENTRAL NEBRASKA...

CITY           SKY/WX    TMP DP  RH WIND       PRES   REMARKS
VALENTINE      CLOUDY    67  65  93 N13G21    29.90R
AINSWORTH      CLOUDY    73  69  87 NE8       29.88S
ONEILL         CLOUDY    83  69  64 S12G17    29.85F
BROKEN BOW     PTSUNNY   82  68  62 SE14      29.85F
IMPERIAL       PTSUNNY   85  65  51 S17G24    29.83S
NORTH PLATTE   CLOUDY    83  69  62 S8        29.85R
MCCOOK         PTSUNNY   89  67  47 S16G26    29.80F HX  92

...EASTERN NEBRASKA...

CITY           SKY/WX    TMP DP  RH WIND       PRES   REMARKS
NORFOLK        CLOUDY    82  71  69 SE16G22   29.84F HAZE
SO SIOUX CITY  CLOUDY    82  72  71 S9        29.87S
ALBION         PTSUNNY   84  72  66 S17G24    29.87S
OMAHA EPPLEY   CLOUDY    90  69  50 S8        29.87F HX  94
MILLARD        CLOUDY    90  72  56 S7        29.88F HX  97
LINCOLN        MOSUNNY   90  71  53 S12       29.87F HX  96
NEBRASKA CITY  MOSUNNY   92  71  50 S16       29.90F HX  98
BEATRICE       LGT RAIN  82  73  73 CALM      29.88F
FALLS CITY     SUNNY     93  69  45 S18G32    29.90F HX  98

...NORTHERN KANSAS...

CITY           SKY/WX    TMP DP  RH WIND       PRES   REMARKS
GOODLAND       CLOUDY    88  62  41 S10G22    29.84F
HILL CITY      CLOUDY    87  67  51 S16G30    29.85F HX  90
NORTON         PTCLDY    90  66  45 S18G24    29.84S HX  92
PHILLIPSBURG   SUNNY     91  63  38 S18G25    29.85F HX  92
SMITH CENTER   SUNNY     93  63  36 S23G29    29.85F HX  94
RUSSELL        MOSUNNY   95  67  39 S29G37    29.86S HX  99
CONCORDIA      NOT AVBL
SALINA         MOSUNNY   97  68  38 S28G33    29.87F HX 102
TOPEKA         MOSUNNY   93  71  48 S15       29.93F HX 100



USA.gov is the U.S. government's official web portal to all federal, state and local government web resources and services.